Flag for Germany Weather past 2 weeks in Marburg, Hesse, Germany

Now
46 °F

Cool.


Feels Like: 46 °F
Forecast: 39 / 48 °F
Wind: 1 mph from West

Location: Giessen

Current Time: Oct 21, 2014 at 3:46:20 AM

Latest Report: Oct 21, 2014 at 3:00 AM


Visibility: 12 mi

Pressure: 29.97 "Hg

Humidity: 97%

Dew point: 45 °F

Location of MarburgLocation

Historic Weather in Marburg — Graph

°F

Marburg temperature yesterday

Maximum temperature yesterday: 62 °F (at 12:00 AM)
Minimum temperature yesterday: 46 °F (at 10:00 PM)
Average temperature yesterday: 56 °F

Past Weeks' High & Low Weather Summary

 TemperatureHumidityPressure
High70 °F (Oct 19, 4:00 PM)100% (Oct 6, 7:00 AM)30.20 "Hg (Oct 6, 7:00 AM)
Low45 °F (Oct 12, 7:00 AM)61% (Oct 15, 4:00 PM)29.63 "Hg (Oct 7, 11:00 AM)
Average55 °F94%29.89 "Hg
* Reported Oct 6 3:00 AM — Oct 21 3:00 AM, Marburg, Weather by CustomWeather, © 2014

Note: Actual official high and low records may vary slightly from our data, if they occured in-between our weather recording intervals... More about our weather records

Advertising

Marburg weather history for previous 24 hours

 ConditionsComfort  
Time TempWeatherWind HumidityBarometerVisibility
3:00 AM
Oct 21
46 °FCool.1 mph97%29.97 "Hg12 mi
2:00 AM46 °FCool.1 mph98%29.98 "Hg7 mi
1:00 AM47 °FCool.1 mph97%29.98 "Hg16 mi
12:00 AM47 °FCool.2 mph97%29.99 "Hg13 mi
11:00 PM
Oct 20
48 °FCool.2 mph98%30.00 "Hg11 mi
10:00 PM46 °FFog.2 mph99%30.01 "Hg4 mi
9:00 PM49 °FCool.2 mph95%30.00 "Hg14 mi
8:00 PM50 °FCool.1 mph93%30.01 "Hg22 mi
7:00 PM54 °FCool.1 mph86%30.01 "Hg22 mi
6:00 PM57 °FCool.2 mph77%30.01 "Hg37 mi
5:00 PM60 °FCool.6 mph67%30.03 "Hg43 mi
4:00 PM61 °FCool.7 mph65%30.03 "Hg40 mi
3:00 PM61 °FCool.7 mph63%30.04 "Hg31 mi
2:00 PM61 °FCool.7 mph62%30.05 "Hg28 mi
1:00 PM61 °FCool.8 mph64%30.06 "Hg25 mi
12:00 PM60 °FCool.7 mph69%30.07 "Hg37 mi
11:00 AM59 °FCool.5 mph79%30.07 "Hg31 mi
10:00 AM56 °FCool.2 mph92%30.08 "Hg25 mi
9:00 AM51 °FCool.2 mph97%30.08 "Hg12 mi
8:00 AM53 °FCool.2 mph93%30.06 "Hg28 mi
7:00 AM55 °FCool.1 mph92%30.04 "Hg31 mi
5:00 AM54 °FCool.1 mph93%30.05 "Hg34 mi
4:00 AM56 °FCool.3 mph91%30.06 "Hg25 mi
3:00 AM58 °FCool.3 mph89%30.06 "Hg31 mi
Weather by CustomWeather, © 2014

See weather overviewHow to use our weather pages